Prestwick, United Kingdom

11:26 PM GMT on November 24, 2017 (GMT +0000)
Prestwick

Weather History for EGPK - February, 2013

Change the Weather History Date:

Wednesday, February 27, 2013

  Actual Average Record
Temperature  
Mean Temperature 33 °F -  
Max Temperature 42 °F 48 °F 55 °F (2007)
Min Temperature 24 °F 36 °F 23 °F (2004)
Degree Days  
Heating Degree Days 32    
Moisture  
Dew Point 32 °F    
Average Humidity 89    
Maximum Humidity 100    
Minimum Humidity 70    
Precipitation  
Precipitation 0.00 in - - ()
Sea Level Pressure  
Sea Level Pressure 30.66 in    
Wind  
Wind Speed 1 mph ()    
Max Wind Speed 5 mph    
Max Gust Speed -    
Visibility 3.8 miles    
Events Fog    
Averages and records for this station are not official NWS values.
T = Trace of Precipitation, MM = Missing Value Source: Averaged Metar Reports

Daily Weather History Graph

Daily Weather History Graph

Search for Another Location

Airport or City:

Trip Planner

Search our weather history database for the weather conditions in past years. The results will help you decide how hot, cold, wet, or windy it might be!

Date:

Astronomy

Feb. 27, 2013 Rise Set
Actual Time 7:13 AM GMT 5:49 PM GMT
Civil Twilight 6:36 AM GMT 6:26 PM GMT
Nautical Twilight 5:54 AM GMT 7:08 PM GMT
Astronomical Twilight 5:11 AM GMT 7:51 PM GMT
Moon 8:27 PM GMT (2/27) 7:15 AM GMT (2/27)
Length of Visible Light 11h 49m
Length of Day
10h 35m
Full, 97% of the Moon is Illuminated
Feb 27
Full
Mar 4
Last Quarter
Mar 11
New
Mar 19
First Quarter
Mar 27
Full

Hourly Weather History & Observations

Time (GMT) Temp. Windchill Dew Point Humidity Pressure Visibility Wind Dir Wind Speed Gust Speed Precip Events Conditions
12:50 AM 32.0 °F - 30.2 °F 93% 30.69 in - Calm Calm - N/A   Clear
1:50 AM 30.2 °F - 28.4 °F 93% 30.69 in - Calm Calm - N/A   Clear
2:50 AM 28.4 °F - 26.6 °F 93% 30.69 in - East 2.3 mph - N/A   Clear
3:50 AM 28.4 °F - 26.6 °F 93% 30.69 in - Calm Calm - N/A   Clear
4:50 AM 28.4 °F - 26.6 °F 93% 30.69 in - Calm Calm - N/A   Clear
5:50 AM 28.4 °F - 26.6 °F 93% 30.69 in - Calm Calm - N/A   Clear
6:20 AM 24.8 °F - 23.0 °F 93% 30.69 in - Calm Calm - N/A   Clear
6:50 AM 26.6 °F - 24.8 °F 93% 30.69 in - Calm Calm - N/A   Clear
7:20 AM 26.6 °F - 24.8 °F 93% 30.69 in - Calm Calm - N/A   Clear
7:50 AM 26.6 °F - 24.8 °F 93% 30.69 in - Calm Calm - N/A   Clear
8:20 AM 28.4 °F - 26.6 °F 93% 30.69 in 6.2 mi Calm Calm - N/A   Partly Cloudy
8:50 AM 32.0 °F - 30.2 °F 93% 30.69 in 6.2 mi Calm Calm - N/A   Partly Cloudy
9:20 AM 35.6 °F - 32.0 °F 87% 30.69 in 6.2 mi Calm Calm - N/A   Partly Cloudy
9:50 AM 37.4 °F - 32.0 °F 81% 30.69 in 6.2 mi Calm Calm - N/A   Partly Cloudy
10:20 AM 39.2 °F - 32.0 °F 75% 30.69 in 6.2 mi Calm Calm - N/A   Partly Cloudy
10:50 AM 41.0 °F - 32.0 °F 70% 30.69 in 6.2 mi SW 2.3 mph - N/A Fog Partly Cloudy
11:20 AM 37.4 °F - 33.8 °F 87% 30.69 in 6.2 mi WNW 2.3 mph - N/A Fog Partly Cloudy
11:50 AM 39.2 °F 37.0 °F 35.6 °F 87% 30.69 in 4.3 mi WNW 3.5 mph - N/A   Partly Cloudy
12:20 PM 41.0 °F 38.0 °F 35.6 °F 81% 30.69 in 4.3 mi West 4.6 mph - N/A   Scattered Clouds
12:50 PM 41.0 °F 39.0 °F 37.4 °F 87% 30.69 in 3.7 mi West 3.5 mph - N/A Fog Fog
1:20 PM 41.0 °F 39.0 °F 37.4 °F 87% 30.66 in 3.7 mi West 3.5 mph - N/A Fog Fog
1:50 PM 42.8 °F 41.1 °F 37.4 °F 81% 30.66 in 3.7 mi West 3.5 mph - N/A Fog Fog
2:20 PM 42.8 °F 41.1 °F 37.4 °F 81% 30.66 in 4.3 mi Variable 3.5 mph - N/A   Partly Cloudy
2:50 PM 42.8 °F - 37.4 °F 81% 30.66 in 4.3 mi West 2.3 mph - N/A   Partly Cloudy
3:20 PM 42.8 °F - 37.4 °F 81% 30.63 in 4.3 mi West 2.3 mph - N/A   Partly Cloudy
3:50 PM 42.8 °F 41.1 °F 37.4 °F 81% 30.63 in 4.3 mi Variable 3.5 mph - N/A Fog Fog
4:20 PM 42.8 °F 41.1 °F 37.4 °F 81% 30.63 in 3.7 mi WNW 3.5 mph - N/A Fog Fog
4:50 PM 39.2 °F 37.0 °F 35.6 °F 87% 30.63 in 1.6 mi West 3.5 mph - N/A Fog Fog
5:20 PM 37.4 °F - 35.6 °F 93% 30.63 in 0.0 mi Calm Calm - N/A Fog Fog
5:50 PM 37.4 °F - 35.6 °F 93% 30.63 in 0.0 mi Calm Calm - N/A Fog Fog
6:20 PM 37.4 °F - 35.6 °F 93% 30.63 in 0.1 mi Calm Calm - N/A Fog Fog
6:50 PM 35.6 °F - 33.8 °F 93% 30.63 in 0.1 mi Calm Calm - N/A Fog Fog
7:20 PM 33.8 °F - 32.0 °F 93% 30.63 in 0.2 mi Calm Calm - N/A Fog Fog
7:50 PM 32.0 °F - 32.0 °F 100% 30.63 in 3.7 mi Calm Calm - N/A Fog Fog
8:20 PM 32.0 °F - 30.2 °F 93% 30.63 in 3.7 mi Calm Calm - N/A Fog Fog
8:50 PM 30.2 °F - 30.2 °F 100% 30.63 in 3.7 mi Calm Calm - N/A Fog Fog
9:20 PM 32.0 °F - 30.2 °F 93% 30.63 in 3.7 mi Calm Calm - N/A Fog Fog
9:50 PM 32.0 °F - 30.2 °F 93% 30.63 in 3.7 mi Calm Calm - N/A Fog Fog
10:20 PM 30.2 °F 26.7 °F 28.4 °F 93% 30.63 in 3.7 mi West 3.5 mph - N/A Fog Fog
10:50 PM 30.2 °F - 28.4 °F 93% 30.63 in 3.7 mi Calm Calm - N/A Fog Fog
11:20 PM 30.2 °F - 30.2 °F 100% 30.63 in 5.0 mi Calm Calm - N/A Fog Fog
11:50 PM 30.2 °F - 28.4 °F 93% 30.63 in 5.0 mi Calm Calm - N/A Fog Fog